Terminal Aerodrome Forecast
Issued by NWS

Current Version | Previous Version | Text Only | Print | Product List | Glossary Off
Versions: 1 2 3 4 5 6 7 8 9 10 11 12 13 14 15 16 17 18 19 20 21 22 23 24 25 26 27

000
FTUS41 KPBZ 270300 AAA
TAFHLG
TAF AMD
KHLG 270304Z 2703/2724 00000KT 2SM BR OVC003
     FM270600 33003KT 3SM BR OVC010
     FM271600 30010KT P6SM OVC025=

USA.gov is the U.S. government's official web portal to all federal, state and local government web resources and services.